* Astronomy

Members Login
Post Info TOPIC: Asteroid 2010 HO20


L

Posts: 131433
Date:
Asteroid 2010 HO20
Permalink  
 


Orbital elements:
2010 HO20
Epoch 2010 July 23.0 TT = JDT 2455400.5 MPC
M 22.40710 (2000.0) P Q
n 0.12138012 Peri. 202.23353 -0.78471387 +0.57782635
a 4.0399037 Node 19.08943 -0.41317709 -0.21777031
e 0.5585831 Incl. 43.31810 -0.46207016 -0.78657028
P 8.12 H 16.5 G 0.15 U 9

MPEC 2010 - H45


Asteroid 2010 HO20 was discovered by the WISE satellite on the 18th April, 2010.

__________________
Page 1 of 1  sorted by
Quick Reply

Please log in to post quick replies.



Create your own FREE Forum
Report Abuse
Powered by ActiveBoard